Temperature
16 17 17 17 17 17 19 20 21 21 21 21 20 20 19 18 18 16 14 15 15 15 15 15 15 15 15 15 15 15 15 16 16 16 16 15 15 15 16 15 15 15 15 15 15 15 15 15 15
16 16 16 17 17 18 19 20 20 20 20 19 19 20 19 17 16 15 14 14 14 14 14 15 15 15 15 15 15 15 15 15 15 15 15 15 15 15 15 15 15 15 15 15 15 15 15 15 15
16 16 16 17 17 18 19 20 19 20 19 19 19 18 17 16 15 14 14 14 14 14 14 14 14 14 14 14 15 15 15 15 15 15 15 15 15 15 15 15 15 15 15 15 15 15 15 15 15
15 15 17 16 17 18 19 19 19 19 19 18 18 17 15 14 14 13 13 14 13 13 14 14 14 14 14 14 14 14 15 15 15 15 15 15 15 15 15 15 15 15 15 15 15 15 15 15 15
15 16 16 16 17 18 18 19 19 18 18 18 17 16 14 13 13 13 13 13 13 13 13 13 13 14 14 14 14 14 14 14 14 15 15 15 15 15 15 15 15 15 15 15 15 15 15 15 14
15 16 16 16 17 17 17 17 18 17 17 17 16 16 13 13 13 13 13 12 12 13 13 13 13 13 13 13 13 14 14 14 14 14 14 14 14 14 14 14 14 14 14 14 14 14 14 14 14
15 15 15 16 16 16 16 16 16 15 15 15 15 15 13 12 12 12 12 12 12 12 12 12 13 13 13 13 13 13 13 13 14 14 14 14 14 14 14 14 14 14 14 14 14 14 14 14 14
13 14 16 16 16 15 15 15 15 14 14 13 13 13 12 11 11 12 11 11 11 11 12 12 12 12 12 12 13 13 13 13 13 13 13 14 14 14 14 14 14 14 14 14 14 14 14 14 14
13 13 14 15 15 14 14 14 14 13 13 12 12 12 11 11 11 11 11 11 11 11 11 11 11 11 12 12 12 12 12 13 13 13 13 13 13 13 13 13 13 13 13 13 14 14 14 14 13
13 12 13 13 13 13 13 13 13 12 12 12 11 11 10 10 10 10 10 10 10 10 10 10 11 11 11 11 12 12 12 12 12 12 13 13 13 13 13 13 13 13 13 13 13 13 13 13 13
12 11 12 12 12 12 11 12 11 12 11 11 10 9 10 9 9 9 9 9 9 9 9 10 10 10 11 11 11 11 11 11 12 12 12 12 12 12 12 12 13 13 13 13 13 13 13 13 13
11 11 11 11 10 10 10 10 10 10 10 10 10 9 9 9 9 8 8 8 8 9 9 9 9 10 10 10 10 11 11 11 11 11 11 12 12 12 12 12 12 12 12 12 12 12 12 12 12
10 10 10 9 9 9 9 9 9 9 9 9 9 9 8 8 8 8 8 8 8 8 8 9 9 9 9 9 10 10 10 10 11 11 11 11 11 11 11 12 12 12 12 12 12 12 12 12 12
10 9 9 9 9 9 9 9 9 9 9 9 8 8 8 8 8 7 7 7 7 8 8 8 8 9 9 9 9 9 10 10 10 10 11 11 11 11 11 11 12 12 12 12 12 11 11 11 11
9 8 8 9 9 9 8 8 8 9 9 8 8 8 7 7 7 7 7 6 6 7 7 8 8 8 8 9 9 9 9 10 10 10 10 10 10 11 11 11 11 11 11 11 11 11 11 11 11
9 8 8 9 9 9 8 7 9 9 9 8 8 8 7 7 6 6 6 6 6 6 7 7 7 8 8 8 8 9 9 9 9 9 10 10 10 10 10 10 11 11 11 11 11 11 11 11 10
8 8 9 8 9 9 8 7 9 9 8 8 8 8 7 7 6 6 6 5 6 6 6 7 7 7 7 8 8 8 8 9 9 9 9 9 10 10 10 10 10 10 10 11 11 11 10 10 10
7 8 9 9 8 8 7 7 8 8 8 8 8 7 7 6 6 5 5 5 5 6 6 6 7 7 7 7 7 7 8 8 8 8 9 9 9 9 9 10 10 10 10 10 10 10 10 10 10
7 7 7 8 8 7 7 7 8 8 8 7 7 7 7 6 5 5 5 5 5 5 6 6 6 6 6 7 7 7 7 7 7 8 8 8 9 9 9 9 9 9 10 10 10 10 9 9 9
6 6 6 7 7 7 6 6 7 7 7 7 7 7 6 6 5 5 4 4 4 5 5 5 6 6 6 6 6 6 6 6 7 7 8 8 8 8 9 9 9 9 9 9 9 9 9 9 9
5 5 5 5 6 6 5 5 7 7 7 7 7 6 6 5 5 4 4 4 4 4 4 4 5 5 5 6 6 6 6 6 6 7 7 8 8 8 8 8 9 9 9 9 9 9 9 9 9
4 5 5 4 4 4 5 4 6 6 6 6 6 6 5 5 4 4 4 4 4 4 4 4 4 4 5 5 5 5 5 5 6 6 7 7 7 7 7 8 8 8 8 8 8 9 9 8 8
4 4 4 4 4 3 4 3 5 6 5 5 5 5 4 4 4 3 3 3 3 3 3 4 4 4 4 4 5 5 5 5 5 5 6 6 7 7 7 7 7 8 8 8 8 8 8 8 8
3 3 3 3 3 3 4 4 4 4 4 5 4 4 4 3 3 3 3 3 3 3 3 3 3 3 4 4 4 4 4 4 4 5 5 5 6 6 7 7 7 7 7 7 7 8 8 7 8
2 2 3 3 3 4 5 4 4 4 4 3 3 3 3 3 2 2 2 2 3 3 2 3 3 3 3 3 4 4 4 4 4 4 4 5 5 6 6 6 6 7 7 7 7 7 7 7 7
2 2 3 3 4 4 4 3 3 3 4 3 3 2 2 2 2 1 1 1 2 2 2 2 2 2 3 3 3 3 3 3 4 4 4 4 5 5 5 6 6 6 6 6 6 7 7 7 7
2 2 2 1 2 2 3 4 4 3 2 2 2 1 1 1 1 1 1 1 1 1 2 2 2 2 2 2 3 3 3 3 3 3 3 4 4 5 5 5 5 6 6 6 6 6 6 6 6
1 1 1 1 2 2 4 4 3 1 1 1 1 1 1 1 0 1 1 1 1 1 1 1 2 2 2 2 2 2 2 3 3 3 3 3 4 4 4 5 5 5 5 5 5 6 6 6 6
-0 0 0 1 1 2 2 3 2 1 1 0 0 1 0 0 0 0 0 0 0 0 1 1 1 1 1 1 2 2 2 2 2 2 3 3 3 3 4 4 4 5 5 5 5 5 5 5 5
-0 -0 -0 -0 0 1 1 1 1 1 1 1 0 0 -0 -0 -0 -0 -0 -0 0 0 0 0 1 1 1 1 1 1 2 2 2 2 2 2 3 3 3 4 4 4 4 5 5 5 5 5 5
Wind_Speed
17 14 6 2 3 4 7 4 1 1 1 3 4 3 3 3 3 4 3 5 5 5 6 6 6 6 6 7 8 9 9 9 9 9 9 9 10 10 11 11 11 12 13 14 15 15 16 15 15
14 8 4 3 3 6 5 4 3 1 1 3 3 3 2 3 6 5 4 4 4 5 6 6 6 7 7 7 8 8 8 8 8 8 8 9 9 10 10 10 11 12 13 14 14 15 15 15 14
10 6 3 3 4 5 4 1 1 2 4 2 1 2 2 3 5 3 3 3 4 6 6 7 7 7 7 7 8 8 7 8 8 8 8 8 8 9 10 10 10 11 13 13 14 14 14 14 13
5 3 3 4 8 5 5 2 3 2 2 2 1 2 3 6 4 3 4 4 5 6 7 6 6 7 7 7 7 7 7 7 7 8 7 7 8 8 9 10 10 11 12 13 13 13 13 13 11
3 3 4 6 8 5 4 3 2 1 1 0 1 0 3 5 7 5 5 5 6 6 7 6 6 6 7 7 6 6 6 6 6 7 7 7 7 8 8 9 10 11 11 12 12 13 12 12 10
3 3 4 8 7 5 2 4 2 1 2 2 1 2 3 5 6 5 4 4 5 6 7 6 6 6 6 6 6 6 5 5 6 6 6 7 7 7 8 9 10 10 11 12 12 12 12 11 9
3 3 6 7 6 4 2 3 3 2 3 3 3 1 3 5 5 4 4 4 5 6 6 6 5 6 6 6 6 5 5 5 5 5 5 6 7 7 7 9 10 10 11 11 12 11 11 10 9
4 3 5 6 6 3 1 2 2 3 3 4 3 1 1 2 4 3 3 4 5 5 5 5 5 5 5 5 6 5 5 5 4 5 5 5 6 7 7 8 9 10 11 11 12 11 11 10 8
4 3 5 4 3 1 2 3 3 3 2 2 2 2 3 4 3 3 2 3 4 4 4 4 4 4 4 4 4 5 4 4 4 4 5 5 5 6 6 7 9 10 11 11 11 11 10 9 7
2 3 3 3 5 3 3 4 4 3 4 4 2 3 5 3 2 1 1 2 2 3 3 3 3 3 3 2 3 3 3 2 3 3 4 3 4 5 6 7 10 10 10 11 11 10 9 7 5
1 2 2 3 6 4 4 4 4 5 6 4 3 2 2 1 1 1 1 1 1 1 2 2 3 3 3 2 1 1 2 2 2 2 2 3 4 5 6 6 8 9 9 9 9 9 7 6 5
2 3 3 3 5 5 5 5 5 6 6 4 4 2 1 1 1 0 1 1 1 1 1 1 2 2 3 3 1 1 2 2 2 1 1 2 2 3 4 4 6 7 7 7 7 6 6 6 6
4 4 3 3 5 5 6 7 7 7 5 4 3 2 3 3 2 1 0 1 1 1 1 1 2 1 2 2 2 2 1 1 1 1 1 1 1 2 3 3 4 5 6 6 5 4 4 5 5
2 3 5 6 7 6 7 9 7 8 5 5 4 4 3 3 2 1 0 1 2 1 1 1 1 1 1 1 1 1 1 1 1 0 1 1 1 2 2 2 3 3 6 6 5 4 4 4 5
3 5 6 6 7 4 5 8 9 7 5 6 5 5 4 3 2 2 1 1 2 1 0 1 1 2 1 1 1 1 1 1 1 1 1 2 1 2 2 2 2 3 6 6 5 4 5 4 4
5 5 5 4 5 4 4 9 5 4 5 6 5 5 4 3 3 2 1 1 1 1 0 1 1 1 1 1 1 1 1 1 1 1 1 1 1 2 2 2 2 4 5 5 4 3 3 3 3
4 5 6 4 4 4 6 8 5 3 5 6 6 5 4 3 2 1 1 0 1 1 0 0 1 0 1 1 2 1 1 1 1 1 1 0 1 1 3 2 3 4 4 3 4 4 4 4 4
4 6 7 6 3 5 8 10 8 6 7 7 6 4 4 3 2 2 1 1 1 1 0 0 1 0 1 1 1 1 1 0 1 1 0 0 1 1 3 3 3 3 3 4 4 4 4 4 4
6 7 10 8 4 6 10 13 11 8 7 7 6 4 3 3 2 2 1 1 1 1 1 0 1 1 0 0 0 0 1 1 1 1 1 1 1 1 2 2 3 3 4 4 5 5 5 4 4
7 9 10 8 5 6 10 14 12 9 7 5 4 4 4 3 2 1 0 0 1 1 1 1 1 1 0 0 1 2 2 2 1 0 1 2 2 2 2 3 3 3 4 5 5 5 4 3 3
7 7 7 9 10 8 8 10 7 4 4 4 4 3 3 3 3 2 1 1 2 2 2 2 1 2 1 1 0 1 1 1 1 1 1 1 2 3 1 2 3 3 4 5 6 5 5 5 4
6 4 7 9 7 5 2 5 6 5 5 4 3 3 3 2 2 2 1 2 2 3 2 2 2 2 2 1 1 1 2 2 2 2 2 1 1 2 2 2 3 3 4 5 6 5 4 6 6
5 7 8 9 8 7 5 5 6 4 4 3 3 2 1 1 1 1 2 3 2 2 2 2 2 2 1 1 2 2 2 2 2 1 2 2 1 1 2 2 2 3 3 5 5 5 5 4 5
5 6 7 6 4 6 7 6 4 3 3 2 2 1 1 1 1 2 3 2 2 1 1 2 2 2 2 2 2 3 2 2 2 2 3 2 2 1 2 2 2 3 3 4 5 5 6 5 4
3 2 2 2 4 6 2 3 4 1 2 2 2 2 2 2 2 3 3 2 2 2 2 2 3 3 3 3 3 3 3 3 3 3 3 2 2 2 3 2 2 3 3 4 4 5 5 5 5
3 2 1 3 4 3 2 5 2 2 3 3 3 2 3 3 3 3 3 3 3 3 3 3 4 3 3 3 3 3 3 3 3 3 3 3 3 3 3 3 3 3 4 5 4 4 5 5 5
2 1 1 2 4 4 5 3 1 4 5 4 3 4 4 4 4 5 4 4 3 3 4 4 4 4 3 3 3 3 3 3 3 3 3 3 3 3 3 4 4 3 5 5 5 4 5 5 5
2 2 0 1 2 5 5 4 2 1 3 3 4 4 4 5 6 6 5 4 4 3 4 4 4 4 3 3 3 3 3 4 3 3 3 3 3 3 4 4 4 4 5 5 5 5 5 6 5
1 1 2 3 3 3 4 3 2 2 2 2 4 5 5 5 6 6 6 5 4 3 3 4 4 3 3 3 3 4 4 4 4 4 4 4 4 4 4 5 5 5 5 6 6 6 6 7 6
2 2 3 2 4 4 4 4 1 4 3 3 4 5 5 5 6 6 6 5 5 4 4 4 4 4 4 3 3 4 3 3 4 4 4 4 4 4 4 5 5 6 6 6 7 7 7 7 7
Wind_Direction
311 292 274 267 248 230 238 235 257 319 321 14 16 0 16 4 24 97 89 63 58 85 101 110 103 100 100 104 109 108 107 103 99 96 93 93 99 104 104 104 102 101 99 98 96 94 91 89 89
304 298 276 243 243 233 232 216 220 261 41 38 9 353 37 54 63 84 60 39 58 88 101 107 103 106 105 106 112 113 112 110 106 101 99 97 98 106 105 105 104 102 100 99 98 96 94 91 89
290 277 268 234 233 239 243 211 118 95 78 77 360 7 22 51 68 69 44 41 63 80 91 103 102 104 105 110 113 115 116 116 111 106 104 103 100 104 107 103 102 103 103 102 100 98 95 92 90
287 243 246 247 238 238 257 284 52 56 70 54 42 83 89 50 49 55 62 52 70 74 81 100 106 103 99 100 111 113 115 117 117 113 110 109 103 103 109 106 105 106 107 106 104 100 97 94 90
256 256 229 234 242 248 282 317 7 358 239 111 347 297 95 54 55 62 78 67 76 69 65 89 92 105 101 95 96 109 117 118 121 120 116 116 109 105 108 111 109 111 112 112 109 105 101 96 91
261 250 239 234 233 233 270 330 337 356 335 347 337 276 101 67 53 45 75 79 76 75 64 74 72 84 99 99 91 89 106 119 121 119 119 117 113 108 111 117 117 116 116 116 113 109 106 100 94
285 259 250 256 246 249 270 337 360 358 320 342 350 278 121 52 45 40 45 78 76 74 69 62 67 78 78 81 86 85 85 105 118 119 117 117 120 115 115 123 123 122 119 118 117 113 109 105 100
305 288 252 252 247 251 337 320 1 7 335 351 356 304 119 39 36 32 34 58 80 75 73 63 56 70 74 73 77 78 85 88 109 124 124 121 123 122 121 126 126 124 123 123 121 118 114 111 107
296 261 250 269 291 300 3 320 349 357 316 320 344 0 67 69 52 41 37 48 59 70 74 66 52 44 64 78 82 73 89 96 101 123 133 131 130 129 126 128 130 128 128 129 128 124 121 117 115
279 246 261 328 338 339 339 325 322 301 277 284 322 29 73 72 63 64 68 69 58 69 68 58 53 45 48 75 80 84 83 105 115 129 144 145 133 135 132 128 134 133 134 135 135 132 131 126 125
279 256 296 328 338 334 311 307 308 274 269 269 281 330 59 71 40 43 44 87 59 93 74 59 32 28 30 26 67 57 73 75 92 117 114 124 130 135 135 131 137 138 140 138 137 137 141 138 129
274 289 300 307 323 310 299 300 289 271 272 311 313 280 265 224 217 245 17 27 26 50 86 64 29 30 17 19 16 38 36 47 46 62 98 105 122 133 138 140 145 148 149 142 143 150 148 136 126
250 261 289 298 293 291 292 276 271 265 269 279 277 268 251 225 214 205 218 354 332 327 81 48 24 34 17 18 4 35 23 34 71 27 28 101 111 140 143 146 136 146 146 144 149 148 135 124 122
300 287 278 268 267 265 267 269 261 252 239 243 241 249 246 210 212 202 187 300 313 316 43 7 27 7 16 14 4 9 31 44 76 39 1 14 102 109 122 130 126 140 149 153 151 135 115 108 109
259 270 266 246 249 243 271 267 239 232 230 238 235 236 245 207 199 194 189 247 280 276 115 346 12 12 16 14 350 6 336 85 63 25 11 26 81 123 122 136 138 146 156 153 140 124 114 109 109
241 247 254 232 237 221 238 262 242 197 215 234 239 234 237 200 192 190 190 244 275 283 203 321 330 356 8 360 346 9 9 29 45 72 48 39 36 139 129 142 158 156 154 146 142 141 133 120 113
227 253 258 250 224 236 233 261 261 211 229 237 234 232 227 208 189 180 177 303 285 291 263 263 313 290 5 7 2 7 34 17 43 73 48 135 78 138 130 133 159 161 152 146 151 144 139 132 126
267 273 281 278 247 264 258 265 264 253 245 247 239 230 214 208 197 178 142 10 313 292 268 198 333 338 47 47 38 26 56 21 78 93 131 185 150 145 143 153 162 154 159 160 151 148 140 137 134
287 281 282 287 297 289 267 269 267 254 247 242 233 227 209 202 184 160 148 129 297 278 176 227 321 320 55 97 108 256 264 269 227 174 179 184 187 189 168 163 166 167 163 164 158 152 145 139 128
281 281 284 290 302 289 275 272 265 250 234 224 224 216 200 197 166 158 190 172 273 208 190 219 292 298 251 228 235 235 249 248 249 195 179 192 201 203 189 177 178 180 165 160 160 156 157 154 150
269 269 289 298 305 266 265 275 231 218 203 200 210 206 193 205 183 192 219 257 245 212 199 234 264 287 268 232 256 305 299 272 256 231 214 221 207 200 200 205 175 178 174 176 170 164 170 171 175
272 301 294 292 294 283 252 279 248 210 205 195 200 195 191 215 202 202 236 287 260 222 205 213 235 272 271 231 226 221 238 242 260 247 232 227 207 201 206 228 189 182 173 177 178 168 171 171 180
280 303 282 275 273 278 243 242 261 192 207 197 176 171 141 197 232 255 265 275 268 229 212 211 230 258 266 259 234 225 242 249 265 256 232 212 194 186 204 230 207 192 181 177 179 174 172 179 182
295 290 272 255 255 258 230 216 264 205 217 183 137 80 30 335 302 290 291 279 283 272 234 227 236 254 248 250 251 241 232 230 233 252 241 218 211 218 213 219 207 196 191 181 183 182 179 182 183
314 319 319 282 233 243 189 216 250 150 100 93 80 41 357 350 329 310 304 296 290 293 283 250 242 248 250 247 247 244 236 221 222 230 237 234 220 222 220 222 211 198 194 183 179 179 178 179 182
275 276 259 270 270 302 250 232 230 82 86 73 66 57 19 356 336 314 312 307 295 297 298 276 246 247 243 243 249 250 245 231 232 234 232 230 229 222 213 211 203 194 191 190 181 182 184 183 184
296 269 334 287 289 278 254 240 91 51 47 49 46 28 359 345 339 327 316 304 299 298 296 285 260 250 247 244 247 245 242 243 244 242 240 232 229 229 216 212 204 199 194 187 181 187 189 186 186
300 321 329 233 283 277 269 248 266 7 6 8 17 0 342 347 340 333 323 309 294 287 286 293 270 253 254 244 240 244 242 246 244 239 243 238 233 228 220 216 208 203 199 187 185 190 193 187 189
186 233 254 261 260 271 284 282 30 96 62 8 346 346 339 336 331 330 322 312 304 301 298 298 288 271 262 248 239 242 247 250 241 237 244 246 240 230 227 218 210 208 205 194 191 195 193 192 191
193 214 196 217 266 250 271 275 49 72 60 19 341 336 333 336 335 330 327 326 329 322 308 301 306 274 261 256 246 242 249 250 247 247 248 247 245 243 235 222 213 214 210 198 195 197 198 195 194
Height
1501 1502 1504 1506 1508 1509 1506 1498 1494 1496 1498 1501 1502 1503 1505 1509 1513 1522 1521 1518 1517 1517 1518 1519 1521 1523 1524 1526 1528 1529 1530 1531 1532 1533 1535 1536 1537 1538 1539 1541 1542 1543 1544 1544 1545 1546 1547 1547 1548
1501 1503 1506 1506 1508 1511 1504 1496 1496 1497 1500 1502 1503 1505 1507 1511 1514 1516 1517 1517 1517 1517 1518 1519 1521 1522 1524 1526 1528 1529 1530 1532 1533 1534 1535 1537 1538 1539 1540 1542 1543 1544 1545 1546 1547 1548 1548 1549 1550
1501 1503 1506 1504 1505 1506 1501 1494 1495 1497 1501 1503 1505 1506 1510 1514 1515 1516 1517 1517 1517 1517 1518 1519 1520 1522 1524 1526 1528 1529 1530 1532 1533 1534 1536 1537 1538 1540 1541 1542 1544 1545 1546 1547 1548 1549 1550 1551 1551
1503 1505 1506 1506 1503 1498 1496 1495 1496 1499 1502 1504 1506 1509 1512 1516 1516 1516 1516 1516 1516 1517 1518 1519 1520 1522 1523 1525 1527 1529 1530 1532 1533 1535 1536 1537 1539 1540 1541 1543 1544 1545 1547 1548 1549 1550 1551 1552 1553
1503 1504 1505 1505 1501 1498 1497 1498 1499 1500 1503 1505 1506 1509 1512 1515 1515 1515 1516 1516 1516 1516 1518 1519 1520 1521 1523 1525 1526 1528 1530 1531 1533 1534 1536 1537 1539 1540 1542 1543 1545 1546 1547 1548 1550 1551 1552 1553 1554
1505 1502 1505 1504 1499 1498 1499 1500 1500 1502 1504 1505 1507 1509 1513 1514 1514 1515 1515 1516 1516 1516 1517 1518 1519 1521 1522 1524 1526 1528 1529 1531 1533 1534 1536 1537 1539 1540 1542 1543 1545 1546 1547 1549 1550 1551 1553 1554 1555
1505 1503 1502 1499 1499 1499 1501 1502 1502 1503 1505 1507 1509 1510 1511 1512 1513 1514 1515 1515 1515 1516 1516 1517 1519 1520 1521 1523 1525 1527 1529 1530 1532 1534 1535 1537 1538 1540 1541 1543 1545 1546 1547 1549 1550 1552 1553 1554 1555
1503 1503 1499 1498 1498 1500 1503 1503 1504 1506 1507 1508 1509 1510 1511 1512 1512 1513 1514 1515 1515 1515 1515 1516 1518 1519 1520 1522 1524 1526 1528 1529 1531 1533 1534 1536 1538 1539 1541 1543 1544 1546 1547 1549 1550 1552 1553 1554 1556
1504 1506 1502 1500 1500 1502 1503 1504 1505 1506 1508 1508 1509 1510 1510 1510 1511 1512 1513 1514 1514 1514 1515 1515 1516 1517 1519 1520 1522 1524 1526 1528 1530 1532 1533 1535 1537 1538 1540 1542 1544 1545 1547 1549 1550 1552 1553 1554 1556
1504 1506 1503 1503 1503 1503 1504 1505 1506 1507 1507 1508 1508 1508 1508 1508 1509 1510 1510 1511 1512 1512 1513 1514 1515 1516 1517 1519 1521 1523 1524 1526 1528 1530 1532 1534 1535 1537 1539 1541 1543 1544 1546 1548 1550 1551 1553 1554 1556
1504 1505 1504 1505 1505 1505 1505 1505 1506 1506 1506 1507 1507 1507 1507 1507 1508 1508 1509 1510 1510 1511 1512 1513 1514 1515 1516 1517 1519 1521 1522 1524 1526 1528 1530 1532 1533 1535 1537 1539 1541 1543 1545 1547 1549 1550 1552 1554 1555
1505 1505 1505 1506 1506 1506 1506 1506 1506 1505 1505 1506 1506 1506 1506 1506 1506 1507 1507 1508 1509 1510 1510 1511 1512 1513 1514 1516 1517 1518 1520 1522 1524 1526 1528 1530 1532 1534 1535 1537 1539 1541 1544 1546 1547 1549 1551 1553 1555
1505 1506 1506 1506 1506 1506 1505 1505 1505 1503 1503 1504 1504 1505 1504 1504 1504 1505 1506 1506 1507 1507 1508 1509 1510 1511 1512 1514 1515 1516 1518 1519 1522 1524 1526 1528 1529 1531 1534 1535 1537 1539 1542 1544 1546 1548 1550 1552 1554
1505 1505 1506 1506 1505 1504 1504 1503 1503 1499 1500 1501 1502 1502 1502 1502 1502 1503 1504 1504 1504 1505 1506 1508 1508 1509 1510 1511 1513 1514 1516 1517 1519 1521 1523 1525 1527 1529 1531 1533 1535 1537 1540 1542 1544 1547 1548 1550 1552
1506 1506 1504 1503 1502 1502 1503 1500 1497 1496 1497 1498 1498 1499 1499 1500 1500 1500 1501 1502 1502 1503 1504 1505 1506 1507 1508 1509 1510 1512 1513 1515 1516 1518 1520 1523 1525 1527 1529 1531 1533 1536 1538 1540 1543 1545 1547 1549 1550
1505 1505 1504 1499 1499 1500 1504 1499 1493 1493 1494 1494 1495 1496 1496 1497 1498 1499 1499 1499 1500 1501 1502 1503 1504 1505 1506 1507 1508 1509 1510 1512 1514 1515 1517 1520 1522 1524 1526 1528 1531 1533 1536 1538 1540 1543 1545 1547 1549
1504 1503 1498 1499 1497 1497 1499 1495 1491 1491 1491 1491 1492 1492 1493 1494 1495 1496 1497 1497 1497 1498 1499 1500 1501 1502 1503 1504 1505 1507 1508 1509 1510 1512 1514 1517 1519 1521 1523 1525 1528 1531 1533 1536 1538 1541 1543 1545 1547
1506 1501 1496 1496 1496 1496 1495 1491 1488 1489 1489 1488 1489 1489 1490 1491 1492 1493 1494 1495 1496 1496 1497 1497 1498 1500 1500 1501 1502 1504 1505 1506 1507 1509 1511 1514 1516 1518 1520 1522 1525 1527 1530 1532 1535 1538 1541 1543 1545
1503 1503 1500 1496 1495 1496 1493 1489 1485 1484 1485 1485 1486 1487 1487 1489 1490 1491 1492 1493 1493 1493 1493 1494 1495 1496 1497 1498 1499 1500 1501 1502 1504 1506 1508 1510 1513 1515 1517 1518 1521 1524 1526 1529 1531 1535 1537 1540 1543
1504 1504 1500 1494 1493 1494 1492 1486 1480 1479 1480 1481 1482 1483 1485 1487 1488 1489 1489 1490 1490 1490 1490 1491 1492 1493 1494 1495 1496 1497 1498 1499 1501 1503 1505 1507 1509 1511 1513 1515 1517 1520 1522 1525 1528 1531 1534 1537 1539
1505 1505 1502 1501 1496 1491 1492 1485 1476 1476 1477 1478 1480 1482 1483 1485 1486 1487 1487 1488 1488 1487 1488 1489 1489 1490 1491 1492 1493 1494 1495 1496 1497 1499 1501 1503 1505 1507 1509 1511 1513 1516 1518 1521 1524 1527 1530 1532 1536
1505 1503 1503 1502 1502 1497 1492 1494 1476 1475 1475 1476 1478 1480 1482 1483 1484 1484 1484 1484 1485 1485 1486 1486 1487 1487 1488 1489 1489 1490 1491 1492 1493 1495 1497 1499 1501 1503 1505 1508 1510 1512 1514 1517 1520 1523 1526 1529 1531
1506 1504 1502 1501 1500 1500 1493 1497 1481 1474 1475 1476 1478 1479 1480 1481 1482 1482 1483 1482 1482 1483 1483 1484 1484 1484 1485 1486 1486 1487 1488 1488 1490 1491 1493 1495 1497 1499 1501 1504 1506 1508 1511 1513 1516 1519 1522 1524 1527
1506 1504 1501 1499 1500 1501 1488 1492 1482 1477 1476 1475 1477 1478 1479 1480 1481 1481 1481 1480 1480 1480 1480 1481 1481 1481 1481 1482 1483 1483 1484 1485 1486 1487 1489 1490 1492 1494 1497 1499 1501 1504 1506 1509 1512 1515 1517 1520 1523
1509 1508 1504 1501 1498 1490 1482 1487 1484 1476 1475 1476 1477 1478 1479 1479 1479 1479 1479 1478 1477 1477 1477 1477 1477 1477 1478 1479 1479 1480 1480 1481 1482 1483 1484 1486 1488 1490 1492 1495 1497 1500 1502 1505 1508 1510 1512 1516 1518
1510 1509 1510 1506 1495 1487 1485 1486 1480 1476 1475 1476 1477 1478 1478 1479 1479 1479 1478 1477 1475 1474 1474 1474 1474 1474 1475 1475 1475 1476 1477 1478 1479 1480 1481 1482 1484 1486 1488 1491 1493 1495 1498 1501 1503 1506 1509 1512 1514
1510 1510 1510 1511 1505 1502 1486 1477 1476 1476 1476 1477 1478 1479 1479 1478 1478 1477 1476 1474 1473 1472 1472 1472 1471 1471 1471 1471 1472 1472 1473 1474 1475 1476 1477 1478 1480 1482 1484 1486 1488 1490 1493 1496 1499 1502 1504 1507 1510
1512 1511 1513 1511 1509 1499 1483 1478 1482 1481 1480 1479 1479 1479 1479 1478 1477 1475 1474 1472 1471 1470 1470 1468 1468 1468 1468 1468 1468 1469 1470 1471 1471 1472 1473 1474 1476 1478 1480 1482 1483 1485 1488 1491 1494 1497 1500 1503 1506
1514 1514 1512 1510 1506 1504 1495 1489 1482 1482 1481 1481 1480 1480 1479 1478 1476 1474 1473 1471 1469 1468 1467 1466 1466 1464 1464 1465 1465 1465 1466 1467 1467 1468 1468 1470 1471 1473 1475 1477 1478 1480 1483 1485 1488 1492 1495 1498 1501
1510 1512 1513 1516 1512 1505 1503 1496 1482 1481 1481 1482 1481 1480 1479 1477 1475 1473 1470 1468 1467 1466 1465 1463 1462 1462 1461 1461 1461 1462 1462 1462 1463 1463 1464 1466 1467 1468 1470 1472 1474 1475 1478 1480 1483 1486 1490 1492 1495